NADEZHDA 6

Satellite information

Favourite Embed

Satellite Type and Status

PAYLOADIN ORBIT

Key statistics

Satellite NADEZHDA 6 at a glance.

Uptime

9141

Days in orbit

Revolutions

≈ 14.7

Per day

Orbit

SSO

Sun Synchronous Orbit

Inclination

97.8

Latest

Satellite identification and parameters

Extended collection of information and parameters for NADEZHDA 6.

Object identification

Identified? True

Debris? False

Object name: NADEZHDA 6

International designator: 2000-033A

Object number (NORAD): 26384

Object ID (CCSDS): 26384

Country: COMMONWEALTH OF INDEPENDENT STATES (CIS)

Current information (Y/N): Y

RCS size: LARGE

Orbital parameters

Period: 97.923 minutes

Inclination: 97.7997 deg

SMA: 7037.472 km

Apoapsis: 669.062 km

Periapsis: 649.613 km

RAAN: 172.7824 deg

Eccentricy: 0.0013818

Argument of periapsis: 22.5901 deg

Mean anomaly: 337.5911 deg

Mean motion: 14.7054291 rev/day

Mean motion (dot): 0.00000595 rev/day2

B* drag term: 0.00010564 1/REarth

Two-line elements (TLE)

Creation date: July 8, 2025, 2:27 a.m.

Reference frame: TEME

Reference center: EARTH

Epoch: July 7, 2025, 9:23 p.m. UTC

TLE line 0: 0 NADEZHDA 6

TLE line 1: 1 26384U 00033A 25188.89159962 .00000595 00000-0 10564-3 0 9990

TLE line 2: 2 26384 97.7997 172.7824 0013818 22.5901 337.5911 14.70542910337571

Live tracking on map

Real-time ground track for satellite NADEZHDA 6.

In-orbit conjunctions

There are no conjunctions computed for NADEZHDA 6, at the moment. Check back to stay up to date, as we update our databases every day.

Go to all conjunctions

Associated space launch

Civilian navigation satellite equivalent to the purely military Parus

NADEZHDA 6 was lifted into orbit during the mission ‘Kosmos-3M | Nadezhda 9’, on board a Kosmos-3M space rocket.

The launch took place on June 28, 2000, 10:37 a.m. from 132/1 (132L).

For more information about the launch, click the button.

Launch to space Kosmos-3M | Nadezhda 9
Kosmos-3M | Nadezhda 9

Agency: N/A

Status: Launch Successful

Launch date: June 28, 2000, 10:37 a.m. UTC

Rocket: Kosmos-3M

Launch pad: 132/1 (132L)

Location: Plesetsk Cosmodrome, Russian Federation

...

Latest news about this satellite

There are no fresh news available about this satellite. Check back as we update our databases every day.


Newsletter sign-up

Weekly statistics, charts and insights to help you stay on top of the space industry.